Afton, WI

10:02 PM CST on January 21, 2017 (GMT -0600)
Janesville

Weather History for KJVL - August, 2014

Change the Weather History Date:

Saturday, August 23, 2014

  Actual Average Record
Temperature  
Mean Temperature 74 °F -  
Max Temperature 80 °F 76 °F 93 °F (2012)
Min Temperature 69 °F 57 °F 48 °F (2005)
Cooling Degree Days 10    
Growing Degree Days 24 (Base 50)    
Moisture  
Dew Point 71 °F    
Average Humidity 92    
Maximum Humidity 94    
Minimum Humidity 83    
Precipitation  
Precipitation 0.00 in - - ()
Sea Level Pressure  
Sea Level Pressure 29.97 in    
Wind  
Wind Speed 3 mph (ESE)    
Max Wind Speed 6 mph    
Max Gust Speed -    
Visibility 5 miles    
Events Rain    
Averages and records for this station are not official NWS values.
T = Trace of Precipitation, MM = Missing Value Source: NWS Daily Summary

Daily Weather History Graph

Daily Weather History Graph

Search for Another Location

Airport or City:

Trip Planner

Search our weather history database for the weather conditions in past years. The results will help you decide how hot, cold, wet, or windy it might be!

Date:

Astronomy

Aug. 23, 2014 Rise Set
Actual Time 6:11 AM CDT 7:45 PM CDT
Civil Twilight 5:41 AM CDT 8:14 PM CDT
Nautical Twilight 5:05 AM CDT 8:50 PM CDT
Astronomical Twilight 4:27 AM CDT 9:28 PM CDT
Moon 4:26 AM CDT (8/23) 6:30 PM CDT (8/23)
Length of Visible Light 14h 33m
Length of Day
13h 33m
Waning Crescent, 3% of the Moon is Illuminated
Aug 23
Waning Crescent
Aug 25
New
Sep 2
First Quarter
Sep 8
Full
Sep 15
Last Quarter

Hourly Weather History & Observations

Time (CDT) Temp. Heat Index Dew Point Humidity Pressure Visibility Wind Dir Wind Speed Gust Speed Precip Events Conditions
12:15 AM 77.0 °F - 73.4 °F 89% 29.97 in 5.0 mi ESE 4.6 mph - N/A   Mostly Cloudy
12:35 AM 77.0 °F - 73.4 °F 89% 29.97 in 5.0 mi East 3.5 mph - N/A   Clear
12:55 AM 75.2 °F - 73.4 °F 94% 29.97 in 5.0 mi ESE 3.5 mph - N/A   Clear
1:15 AM 75.2 °F - 73.4 °F 94% 29.96 in 5.0 mi Calm Calm - N/A   Scattered Clouds
1:35 AM 75.2 °F - 73.4 °F 94% 29.97 in 5.0 mi East 3.5 mph - N/A   Scattered Clouds
1:55 AM 75.2 °F - 71.6 °F 89% 29.96 in 4.0 mi East 3.5 mph - N/A   Scattered Clouds
2:15 AM 73.4 °F - 71.6 °F 94% 29.97 in 4.0 mi ESE 3.5 mph - N/A   Clear
2:35 AM 73.4 °F - 71.6 °F 94% 29.97 in 4.0 mi Calm Calm - N/A   Clear
2:55 AM 73.4 °F - 71.6 °F 94% 29.98 in 3.0 mi Calm Calm - N/A   Clear
3:15 AM 73.4 °F - 71.6 °F 94% 29.98 in 2.5 mi Calm Calm - N/A   Clear
3:35 AM 73.4 °F - 69.8 °F 88% 29.97 in 1.8 mi East 4.6 mph - N/A   Mist
4:15 AM 73.4 °F - 71.6 °F 94% 29.97 in 2.0 mi Calm Calm - N/A   Scattered Clouds
4:35 AM 71.6 °F - 69.8 °F 94% 29.96 in 2.0 mi Calm Calm - N/A   Scattered Clouds
4:55 AM 71.6 °F - 69.8 °F 94% 29.95 in 2.0 mi Calm Calm - N/A   Clear
5:15 AM 71.6 °F - 69.8 °F 94% 29.96 in 1.8 mi Calm Calm - N/A   Mist
5:35 AM 71.6 °F - 69.8 °F 94% 29.95 in 1.2 mi East 3.5 mph - N/A   Scattered Clouds
5:45 AM 73.4 °F - 71.6 °F 94% 29.96 in 0.5 mi East 5.8 mph - N/A   Overcast
6:45 AM 73.4 °F - 71.6 °F 94% 29.97 in 0.5 mi Calm Calm - N/A   Overcast
7:45 AM 73.4 °F - 71.6 °F 94% 29.98 in 2.0 mi SE 4.6 mph - N/A   Overcast
8:45 AM 75.2 °F - 73.4 °F 94% 29.99 in 3.0 mi SE 4.6 mph - N/A   Clear
9:00 AM 75.2 °F - 73.4 °F 94% 29.99 in 3.0 mi SE 4.6 mph - N/A   Overcast
9:45 AM 78.8 °F - 73.4 °F 83% 29.99 in 4.0 mi East 4.6 mph - N/A   Overcast
10:45 AM 78.8 °F - 75.2 °F 89% 30.01 in 4.0 mi East 4.6 mph - N/A   Overcast
11:45 AM 80.6 °F 86.2 °F 75.2 °F 84% 30.00 in 7.0 mi ESE 5.8 mph - N/A   Overcast
12:45 PM 78.8 °F - 75.2 °F 89% 30.01 in 10.0 mi SSE 4.6 mph - N/A   Overcast
1:45 PM 71.6 °F - 69.8 °F 94% 29.96 in 7.0 mi NNE 3.5 mph - N/A Rain Light Rain
2:45 PM 71.6 °F - 69.8 °F 94% - 10.0 mi SE 4.6 mph - N/A   Mostly Cloudy
3:45 PM 73.4 °F - 71.6 °F 94% 29.92 in 10.0 mi WSW 5.8 mph - N/A   Mostly Cloudy
5:45 PM 75.2 °F - 69.8 °F 83% 29.95 in 10.0 mi Calm Calm - N/A   Mostly Cloudy
7:45 PM 75.2 °F - 69.8 °F 83% 29.96 in 10.0 mi Calm Calm - N/A   Mostly Cloudy
8:45 PM 73.4 °F - 71.6 °F 94% 29.98 in 10.0 mi Calm Calm - N/A   Mostly Cloudy
9:15 PM 73.4 °F - 69.8 °F 88% 29.98 in 10.0 mi Calm Calm - N/A   Clear
9:35 PM 71.6 °F - 69.8 °F 94% 29.98 in 7.0 mi Calm Calm - N/A   Clear
9:55 PM 71.6 °F - 69.8 °F 94% 29.98 in 10.0 mi Calm Calm - N/A   Clear
10:15 PM 71.6 °F - 69.8 °F 94% 29.99 in 7.0 mi Calm Calm - N/A   Clear
10:35 PM 71.6 °F - 68.0 °F 88% 29.99 in 5.0 mi East 3.5 mph - N/A   Clear
10:55 PM 69.8 °F - 68.0 °F 94% 29.99 in 5.0 mi Calm Calm - N/A   Clear
11:15 PM 69.8 °F - 68.0 °F 94% 29.99 in 7.0 mi ENE 4.6 mph - N/A   Mostly Cloudy
11:35 PM 69.8 °F - 68.0 °F 94% 29.99 in 4.0 mi East 3.5 mph - N/A   Mostly Cloudy
11:55 PM 69.8 °F - 68.0 °F 94% 29.99 in 4.0 mi Calm Calm - N/A   Mostly Cloudy